Time,TemperatureF,DewpointF,PressureIn,WindDirection,WindDirectionDegrees,WindSpeedMPH,WindSpeedGustMPH,Humidity,HourlyPrecipIn,Conditions,Clouds,dailyrainin,SoftwareType,DateUTC
2013-05-04 00:02:00,45.0,43.0,29.95,WNW,296,0.0,4.0,94,0.06,,,0.28,,2013-05-04 05:02:00,
2013-05-04 00:12:00,45.0,43.0,29.95,WNW,296,0.0,4.0,94,0.06,,,0.28,,2013-05-04 05:12:00,
2013-05-04 00:22:00,45.0,43.0,29.95,NW,306,0.0,2.0,94,0.06,,,0.28,,2013-05-04 05:22:00,
2013-05-04 00:32:00,45.0,44.0,29.95,West,281,0.0,3.0,95,0.04,,,0.30,,2013-05-04 05:32:00,
2013-05-04 00:42:00,45.0,44.0,29.95,West,281,0.0,3.0,95,0.04,,,0.30,,2013-05-04 05:42:00,
2013-05-04 00:52:00,45.0,43.0,29.94,WSW,244,0.0,2.0,94,0.04,,,0.31,,2013-05-04 05:52:00,
2013-05-04 01:01:00,45.0,43.0,29.96,North,351,0.0,7.0,94,0.03,,,0.31,,2013-05-04 06:01:00,
2013-05-04 01:11:00,45.0,43.0,29.96,North,351,0.0,7.0,94,0.03,,,0.31,,2013-05-04 06:11:00,
2013-05-04 01:21:00,45.0,43.0,29.95,WSW,243,1.0,6.0,94,0.02,,,0.31,,2013-05-04 06:21:00,
2013-05-04 01:32:00,44.0,42.0,29.96,NNW,332,0.0,4.0,93,0.01,,,0.31,,2013-05-04 06:32:00,
2013-05-04 01:42:00,44.0,42.0,29.96,NNW,332,0.0,4.0,93,0.01,,,0.31,,2013-05-04 06:42:00,
2013-05-04 01:52:00,44.0,42.0,29.96,South,174,0.0,6.0,93,0.00,,,0.31,,2013-05-04 06:52:00,
2013-05-04 02:01:00,44.0,42.0,29.94,West,274,0.0,5.0,93,0.01,,,0.32,,2013-05-04 07:01:00,
2013-05-04 02:11:00,44.0,42.0,29.94,West,274,0.0,5.0,93,0.01,,,0.32,,2013-05-04 07:11:00,
2013-05-04 02:21:00,44.0,42.0,29.92,NW,306,0.0,5.0,93,0.02,,,0.33,,2013-05-04 07:21:00,
2013-05-04 02:32:00,44.0,42.0,29.93,NW,308,0.0,5.0,94,0.03,,,0.34,,2013-05-04 07:32:00,
2013-05-04 02:42:00,44.0,42.0,29.93,NW,308,0.0,5.0,94,0.03,,,0.34,,2013-05-04 07:42:00,
2013-05-04 02:52:00,44.0,42.0,29.92,WSW,240,0.0,3.0,94,0.04,,,0.35,,2013-05-04 07:52:00,
2013-05-04 03:01:00,44.0,42.0,29.92,SW,229,0.0,1.0,94,0.04,,,0.36,,2013-05-04 08:01:00,
2013-05-04 03:11:00,44.0,42.0,29.92,SW,229,0.0,1.0,94,0.04,,,0.36,,2013-05-04 08:11:00,
2013-05-04 03:21:00,44.0,42.0,29.92,SW,227,0.0,1.0,94,0.05,,,0.38,,2013-05-04 08:21:00,
2013-05-04 03:31:00,44.0,42.0,29.92,SSW,202,0.0,3.0,94,0.05,,,0.39,,2013-05-04 08:31:00,
2013-05-04 03:42:00,44.0,42.0,29.92,SSW,202,0.0,3.0,94,0.05,,,0.39,,2013-05-04 08:42:00,
2013-05-04 03:52:00,43.0,41.0,29.91,WNW,294,0.0,4.0,94,0.04,,,0.39,,2013-05-04 08:52:00,
2013-05-04 04:02:00,43.0,41.0,29.92,SSW,198,0.0,3.0,94,0.05,,,0.41,,2013-05-04 09:02:00,
2013-05-04 04:11:00,43.0,41.0,29.92,SSW,198,0.0,3.0,94,0.05,,,0.41,,2013-05-04 09:11:00,
2013-05-04 04:21:00,43.0,41.0,29.93,SSW,205,0.0,5.0,94,0.05,,,0.43,,2013-05-04 09:21:00,
2013-05-04 04:32:00,43.0,41.0,29.92,NW,304,0.0,2.0,94,0.06,,,0.45,,2013-05-04 09:32:00,
2013-05-04 04:42:00,43.0,41.0,29.92,NW,304,0.0,2.0,94,0.06,,,0.45,,2013-05-04 09:42:00,
2013-05-04 04:52:00,43.0,41.0,29.92,SW,227,0.0,3.0,94,0.08,,,0.47,,2013-05-04 09:52:00,
2013-05-04 05:03:00,43.0,41.0,29.93,SW,229,0.0,2.0,94,0.07,,,0.48,,2013-05-04 10:03:00,
2013-05-04 05:12:00,43.0,41.0,29.93,SW,229,0.0,2.0,94,0.07,,,0.48,,2013-05-04 10:12:00,
2013-05-04 05:23:00,43.0,41.0,29.92,NE,40,0.0,2.0,94,0.06,,,0.49,,2013-05-04 10:23:00,
2013-05-04 05:33:00,43.0,41.0,29.93,North,355,0.0,2.0,94,0.06,,,0.51,,2013-05-04 10:33:00,
2013-05-04 05:42:00,43.0,41.0,29.93,North,355,0.0,2.0,94,0.06,,,0.51,,2013-05-04 10:42:00,
2013-05-04 05:52:00,43.0,41.0,29.93,NW,326,0.0,2.0,94,0.05,,,0.52,,2013-05-04 10:52:00,
2013-05-04 06:02:00,43.0,41.0,29.92,NW,326,0.0,1.0,94,0.07,,,0.55,,2013-05-04 11:02:00,
2013-05-04 06:11:00,43.0,41.0,29.92,NW,326,0.0,1.0,94,0.07,,,0.55,,2013-05-04 11:11:00,
2013-05-04 06:21:00,43.0,41.0,29.94,NW,326,0.0,2.0,94,0.06,,,0.56,,2013-05-04 11:21:00,
2013-05-04 06:32:00,43.0,41.0,29.94,WSW,251,0.0,2.0,94,0.06,,,0.56,,2013-05-04 11:32:00,
2013-05-04 06:43:00,43.0,41.0,29.94,WSW,251,0.0,2.0,94,0.06,,,0.56,,2013-05-04 11:43:00,
2013-05-04 06:56:00,43.0,42.0,29.95,WSW,255,0.0,1.0,95,0.07,,,0.59,,2013-05-04 11:56:00,
2013-05-04 07:06:00,43.0,41.0,29.95,NW,304,0.0,1.0,94,0.06,,,0.61,,2013-05-04 12:06:00,
2013-05-04 07:28:00,43.0,42.0,29.95,NW,304,0.0,2.0,95,0.09,,,0.65,,2013-05-04 12:28:00,
2013-05-04 07:36:00,43.0,42.0,29.95,NW,304,0.0,1.0,95,0.11,,,0.68,,2013-05-04 12:36:00,
2013-05-04 07:42:00,43.0,42.0,29.95,NW,304,0.0,1.0,95,0.11,,,0.68,,2013-05-04 12:42:00,
2013-05-04 07:51:00,44.0,43.0,29.96,NW,304,0.0,1.0,95,0.12,,,0.71,,2013-05-04 12:51:00,
2013-05-04 08:01:00,44.0,43.0,29.96,NW,316,0.0,4.0,95,0.10,,,0.72,,2013-05-04 13:01:00,
2013-05-04 08:11:00,44.0,43.0,29.96,NW,316,0.0,4.0,95,0.10,,,0.72,,2013-05-04 13:11:00,
2013-05-04 08:21:00,44.0,43.0,29.96,NNW,331,0.0,3.0,95,0.08,,,0.73,,2013-05-04 13:21:00,
2013-05-04 08:32:00,44.0,43.0,29.97,SSW,213,0.0,2.0,95,0.05,,,0.73,,2013-05-04 13:32:00,
2013-05-04 08:42:00,44.0,43.0,29.97,SSW,213,0.0,2.0,95,0.05,,,0.73,,2013-05-04 13:42:00,
2013-05-04 08:52:00,44.0,42.0,29.97,NNW,331,0.0,2.0,94,0.02,,,0.73,,2013-05-04 13:52:00,
2013-05-04 09:02:00,44.0,42.0,29.97,WSW,252,0.0,5.0,94,0.00,,,0.73,,2013-05-04 14:02:00,
2013-05-04 09:11:00,44.0,42.0,29.97,WSW,252,0.0,5.0,94,0.00,,,0.73,,2013-05-04 14:11:00,
2013-05-04 09:21:00,43.0,41.0,29.97,NW,319,1.0,6.0,93,0.01,,,0.74,,2013-05-04 14:21:00,
2013-05-04 09:32:00,43.0,41.0,29.98,WSW,258,0.0,5.0,94,0.01,,,0.74,,2013-05-04 14:32:00,
2013-05-04 09:42:00,43.0,41.0,29.98,WSW,258,0.0,5.0,94,0.01,,,0.74,,2013-05-04 14:42:00,
2013-05-04 09:51:00,43.0,41.0,29.98,NNW,339,0.0,8.0,93,0.01,,,0.74,,2013-05-04 14:51:00,
2013-05-04 10:02:00,43.0,41.0,29.98,WSW,238,1.0,5.0,93,0.01,,,0.74,,2013-05-04 15:02:00,
2013-05-04 10:12:00,43.0,41.0,29.98,WSW,238,1.0,5.0,93,0.01,,,0.74,,2013-05-04 15:12:00,
2013-05-04 10:22:00,44.0,42.0,29.98,WSW,245,2.0,5.0,92,0.00,,,0.74,,2013-05-04 15:22:00,
2013-05-04 10:33:00,44.0,42.0,29.99,West,267,0.0,3.0,93,0.00,,,0.74,,2013-05-04 15:33:00,
2013-05-04 10:43:00,44.0,42.0,29.99,West,267,0.0,3.0,93,0.00,,,0.74,,2013-05-04 15:43:00,
2013-05-04 10:52:00,44.0,42.0,30.00,West,263,0.0,4.0,92,0.00,,,0.74,,2013-05-04 15:52:00,
2013-05-04 11:03:00,44.0,42.0,30.00,NNW,328,0.0,3.0,92,0.00,,,0.74,,2013-05-04 16:03:00,
2013-05-04 11:12:00,44.0,42.0,30.00,NNW,328,0.0,3.0,92,0.00,,,0.74,,2013-05-04 16:12:00,
2013-05-04 11:22:00,44.0,42.0,30.00,NW,308,1.0,5.0,92,0.00,,,0.74,,2013-05-04 16:22:00,
2013-05-04 11:33:00,45.0,43.0,29.99,South,188,0.0,3.0,91,0.00,,,0.74,,2013-05-04 16:33:00,
2013-05-04 11:42:00,45.0,43.0,29.99,South,188,0.0,3.0,91,0.00,,,0.74,,2013-05-04 16:42:00,
2013-05-04 11:52:00,45.0,43.0,30.00,WSW,257,1.0,4.0,91,0.00,,,0.74,,2013-05-04 16:52:00,
2013-05-04 12:02:00,46.0,43.0,30.01,SSW,200,0.0,4.0,89,0.00,,,0.74,,2013-05-04 17:02:00,
2013-05-04 12:12:00,46.0,43.0,30.01,SSW,200,0.0,4.0,89,0.00,,,0.74,,2013-05-04 17:12:00,
2013-05-04 12:22:00,46.0,42.0,30.00,SSW,205,1.0,4.0,87,0.00,,,0.74,,2013-05-04 17:22:00,
2013-05-04 12:32:00,46.0,41.0,30.01,SW,233,1.0,6.0,84,0.00,,,0.74,,2013-05-04 17:32:00,
2013-05-04 12:42:00,46.0,41.0,30.01,SW,233,1.0,6.0,84,0.00,,,0.74,,2013-05-04 17:42:00,
2013-05-04 12:52:00,47.0,43.0,30.01,SSE,154,1.0,4.0,85,0.00,,,0.74,,2013-05-04 17:52:00,
2013-05-04 13:01:00,47.0,42.0,30.01,WSW,238,1.0,4.0,84,0.00,,,0.74,,2013-05-04 18:01:00,
2013-05-04 13:12:00,47.0,42.0,30.01,WSW,238,1.0,4.0,84,0.00,,,0.74,,2013-05-04 18:12:00,
2013-05-04 13:21:00,47.0,42.0,30.01,South,171,0.0,3.0,83,0.00,,,0.74,,2013-05-04 18:21:00,
2013-05-04 13:32:00,47.0,41.0,30.01,SW,236,1.0,5.0,80,0.00,,,0.74,,2013-05-04 18:32:00,
2013-05-04 13:42:00,47.0,41.0,30.01,SW,236,1.0,5.0,80,0.00,,,0.74,,2013-05-04 18:42:00,
2013-05-04 13:52:00,48.0,42.0,30.00,SSW,202,1.0,5.0,79,0.00,,,0.74,,2013-05-04 18:52:00,
2013-05-04 14:01:00,48.0,41.0,30.00,NW,309,1.0,5.0,77,0.00,,,0.74,,2013-05-04 19:01:00,
2013-05-04 14:11:00,48.0,41.0,30.00,NW,309,1.0,5.0,77,0.00,,,0.74,,2013-05-04 19:11:00,
2013-05-04 14:21:00,49.0,41.0,30.00,SE,145,1.0,5.0,75,0.00,,,0.74,,2013-05-04 19:21:00,
2013-05-04 14:32:00,49.0,41.0,30.00,SSE,155,1.0,5.0,73,0.00,,,0.74,,2013-05-04 19:32:00,
2013-05-04 14:42:00,49.0,41.0,30.00,SSE,155,1.0,5.0,73,0.00,,,0.74,,2013-05-04 19:42:00,
2013-05-04 14:52:00,49.0,41.0,29.99,SSE,161,1.0,4.0,73,0.00,,,0.74,,2013-05-04 19:52:00,
2013-05-04 15:02:00,50.0,41.0,30.00,SSE,157,0.0,3.0,72,0.00,,,0.74,,2013-05-04 20:02:00,
2013-05-04 15:11:00,50.0,41.0,30.00,SSE,157,0.0,3.0,72,0.00,,,0.74,,2013-05-04 20:11:00,
2013-05-04 15:22:00,51.0,42.0,30.00,East,94,1.0,4.0,71,0.00,,,0.74,,2013-05-04 20:22:00,
2013-05-04 15:32:00,50.0,40.0,30.00,SW,226,2.0,7.0,68,0.00,,,0.74,,2013-05-04 20:32:00,
2013-05-04 15:42:00,50.0,40.0,30.00,SW,226,2.0,7.0,68,0.00,,,0.74,,2013-05-04 20:42:00,
2013-05-04 15:51:00,50.0,40.0,30.00,ENE,78,0.0,7.0,69,0.00,,,0.74,,2013-05-04 20:51:00,
2013-05-04 16:02:00,50.0,40.0,30.01,East,101,0.0,4.0,68,0.00,,,0.74,,2013-05-04 21:02:00,
2013-05-04 16:12:00,50.0,40.0,30.01,East,101,0.0,4.0,68,0.00,,,0.74,,2013-05-04 21:12:00,
2013-05-04 16:22:00,50.0,41.0,30.00,SSE,149,1.0,5.0,71,0.00,,,0.74,,2013-05-04 21:22:00,
2013-05-04 16:33:00,50.0,42.0,30.01,East,88,0.0,3.0,73,0.00,,,0.74,,2013-05-04 21:33:00,
2013-05-04 16:43:00,50.0,42.0,30.01,East,88,0.0,3.0,73,0.00,,,0.74,,2013-05-04 21:43:00,
2013-05-04 16:53:00,50.0,41.0,30.01,East,93,1.0,3.0,71,0.00,,,0.74,,2013-05-04 21:53:00,
2013-05-04 17:03:00,50.0,41.0,30.01,East,90,1.0,4.0,70,0.00,,,0.74,,2013-05-04 22:03:00,
2013-05-04 17:12:00,50.0,41.0,30.01,East,90,1.0,4.0,70,0.00,,,0.74,,2013-05-04 22:12:00,
2013-05-04 17:22:00,50.0,40.0,30.01,ENE,67,1.0,5.0,68,0.00,,,0.74,,2013-05-04 22:22:00,
2013-05-04 17:33:00,50.0,41.0,30.01,East,97,2.0,4.0,71,0.00,,,0.74,,2013-05-04 22:33:00,
2013-05-04 17:42:00,50.0,41.0,30.01,East,97,2.0,4.0,71,0.00,,,0.74,,2013-05-04 22:42:00,
2013-05-04 17:52:00,51.0,43.0,30.01,SSE,162,3.0,6.0,73,0.00,,,0.74,,2013-05-04 22:52:00,
2013-05-04 18:02:00,50.0,42.0,30.01,ENE,59,2.0,5.0,73,0.00,,,0.74,,2013-05-04 23:02:00,
2013-05-04 18:12:00,50.0,42.0,30.01,ENE,59,2.0,5.0,73,0.00,,,0.74,,2013-05-04 23:12:00,
2013-05-04 18:22:00,50.0,42.0,30.01,ENE,75,2.0,5.0,74,0.00,,,0.74,,2013-05-04 23:22:00,
2013-05-04 18:32:00,50.0,42.0,30.01,East,79,2.0,5.0,75,0.00,,,0.74,,2013-05-04 23:32:00,
2013-05-04 18:42:00,50.0,42.0,30.01,East,79,2.0,5.0,75,0.00,,,0.74,,2013-05-04 23:42:00,
2013-05-04 18:52:00,50.0,43.0,30.01,ENE,64,1.0,5.0,77,0.00,,,0.74,,2013-05-04 23:52:00,
2013-05-04 19:02:00,50.0,44.0,30.01,ENE,78,2.0,4.0,79,0.00,,,0.74,,2013-05-05 00:02:00,
2013-05-04 19:11:00,50.0,44.0,30.01,ENE,78,2.0,4.0,79,0.00,,,0.74,,2013-05-05 00:11:00,
2013-05-04 19:21:00,50.0,43.0,30.01,East,82,2.0,5.0,78,0.00,,,0.74,,2013-05-05 00:21:00,
2013-05-04 19:32:00,49.0,43.0,30.01,ENE,64,1.0,5.0,80,0.00,,,0.72,,2013-05-05 00:32:00,
2013-05-04 19:42:00,49.0,43.0,30.01,ENE,64,1.0,5.0,80,0.00,,,0.72,,2013-05-05 00:42:00,
2013-05-04 19:51:00,49.0,44.0,30.02,ENE,69,1.0,4.0,82,0.00,,,0.72,,2013-05-05 00:51:00,
2013-05-04 20:01:00,49.0,44.0,30.02,ENE,61,1.0,4.0,82,0.00,,,0.72,,2013-05-05 01:01:00,
2013-05-04 20:11:00,49.0,44.0,30.02,ENE,61,1.0,4.0,82,0.00,,,0.72,,2013-05-05 01:11:00,
2013-05-04 20:21:00,49.0,44.0,30.01,ENE,73,0.0,3.0,83,0.00,,,0.72,,2013-05-05 01:21:00,
2013-05-04 20:32:00,49.0,45.0,30.02,ENE,73,0.0,2.0,85,0.00,,,0.72,,2013-05-05 01:32:00,
2013-05-04 20:42:00,49.0,45.0,30.02,ENE,73,0.0,2.0,85,0.00,,,0.72,,2013-05-05 01:42:00,
2013-05-04 20:52:00,48.0,44.0,30.03,ENE,77,0.0,2.0,86,0.00,,,0.72,,2013-05-05 01:52:00,
2013-05-04 21:02:00,48.0,44.0,30.03,ENE,77,0.0,2.0,86,0.00,,,0.72,,2013-05-05 02:02:00,
2013-05-04 21:11:00,48.0,44.0,30.03,ENE,77,0.0,2.0,86,0.00,,,0.72,,2013-05-05 02:11:00,
2013-05-04 21:22:00,48.0,44.0,30.03,ENE,77,0.0,2.0,87,0.00,,,0.72,,2013-05-05 02:22:00,
2013-05-04 21:31:00,48.0,44.0,30.03,ENE,72,1.0,3.0,87,0.00,,,0.66,,2013-05-05 02:31:00,
2013-05-04 21:42:00,48.0,44.0,30.03,ENE,72,1.0,3.0,87,0.00,,,0.66,,2013-05-05 02:42:00,
2013-05-04 21:52:00,48.0,45.0,30.03,ENE,65,0.0,2.0,88,0.00,,,0.66,,2013-05-05 02:52:00,
2013-05-04 22:01:00,48.0,45.0,30.01,North,360,0.0,3.0,88,0.00,,,0.66,,2013-05-05 03:01:00,
2013-05-04 22:11:00,48.0,45.0,30.01,North,360,0.0,3.0,88,0.00,,,0.66,,2013-05-05 03:11:00,
2013-05-04 22:22:00,48.0,45.0,30.02,North,360,0.0,1.0,88,0.00,,,0.66,,2013-05-05 03:22:00,
2013-05-04 22:33:00,48.0,45.0,30.01,ENE,67,0.0,3.0,89,0.00,,,0.55,,2013-05-05 03:33:00,
2013-05-04 22:42:00,48.0,45.0,30.01,ENE,67,0.0,3.0,89,0.00,,,0.55,,2013-05-05 03:42:00,
2013-05-04 22:53:00,48.0,45.0,30.01,ENE,74,2.0,4.0,89,0.00,,,0.55,,2013-05-05 03:53:00,
2013-05-04 23:02:00,47.0,45.0,30.01,ENE,62,2.0,7.0,91,0.02,,,0.56,,2013-05-05 04:02:00,
2013-05-04 23:12:00,47.0,45.0,30.01,ENE,62,2.0,7.0,91,0.02,,,0.56,,2013-05-05 04:12:00,
2013-05-04 23:23:00,46.0,43.0,30.01,ESE,111,3.0,7.0,89,0.03,,,0.57,,2013-05-05 04:23:00,
2013-05-04 23:32:00,46.0,44.0,30.01,East,82,2.0,7.0,91,0.05,,,0.53,,2013-05-05 04:32:00,
2013-05-04 23:43:00,46.0,44.0,30.01,East,82,2.0,7.0,91,0.05,,,0.53,,2013-05-05 04:43:00,
2013-05-04 23:52:00,46.0,44.0,30.00,South,184,0.0,4.0,92,0.07,,,0.55,,2013-05-05 04:52:00,